Weather History for KIRS - August, 2014

Change the Weather History Date:

Friday, August 29, 2014

  Actual Average (KHAI) Record (KHAI)
Temperature  
Mean Temperature 72 °F -  
Max Temperature 82 °F 81 °F 96 °F (1953)
Min Temperature 62 °F 57 °F 36 °F (1965)
Cooling Degree Days 7    
Growing Degree Days 22 (Base 50)    
Moisture  
Dew Point 63 °F    
Average Humidity 77    
Maximum Humidity 88    
Minimum Humidity 65    
Precipitation  
Precipitation 0.00 in - - ()
Sea Level Pressure  
Sea Level Pressure 30.04 in    
Wind  
Wind Speed 8 mph (SE)    
Max Wind Speed 15 mph    
Max Gust Speed 22 mph    
Visibility 10 miles    
Events Rain    
Averages and records for this station are not official NWS values.
T = Trace of Precipitation, MM = Missing Value Source: NWS Daily Summary

Daily Weather History Graph

Daily Weather History Graph

Search for Another Location

Airport or City:

Trip Planner

Search our weather history database for the weather conditions in past years. The results will help you decide how hot, cold, wet, or windy it might be!

Date:

Astronomy

Aug. 29, 2014 Rise Set
Actual Time 7:04 AM EDT 8:20 PM EDT
Civil Twilight 6:35 AM EDT 8:48 PM EDT
Nautical Twilight 6:01 AM EDT 9:23 PM EDT
Astronomical Twilight 5:24 AM EDT 9:59 PM EDT
Moon 10:57 AM EDT (8/29) 10:12 PM EDT (8/29)
Length of Visible Light 14h 13m
Length of Day
13h 15m
Waxing Crescent, 15% of the Moon is Illuminated
Aug 29
Waxing Crescent
Sep 2
First Quarter
Sep 8
Full
Sep 15
Last Quarter
Sep 24
New

Hourly Weather History & Observations

Time (EDT) Temp. Heat Index Dew Point Humidity Pressure Visibility Wind Dir Wind Speed Gust Speed Precip Events Conditions
12:14 AM 64.4 °F - 60.8 °F 88% 30.10 in 10.0 mi ESE 6.9 mph - N/A   Unknown
12:35 AM 64.4 °F - 60.8 °F 88% 30.10 in 10.0 mi SE 5.8 mph - N/A   Unknown
12:54 AM 64.4 °F - 60.8 °F 88% 30.10 in 10.0 mi SE 6.9 mph - N/A   Unknown
1:14 AM 64.4 °F - 59.0 °F 83% 30.10 in 10.0 mi SE 8.1 mph - N/A   Unknown
1:35 AM 64.4 °F - 59.0 °F 83% 30.10 in 10.0 mi SE 9.2 mph - N/A   Unknown
1:54 AM 64.4 °F - 59.0 °F 83% 30.10 in 10.0 mi SE 8.1 mph - N/A   Unknown
2:14 AM 64.4 °F - 59.0 °F 83% 30.09 in 10.0 mi SE 6.9 mph - N/A   Unknown
2:35 AM 64.4 °F - 57.2 °F 77% 30.08 in 10.0 mi SE 10.4 mph - N/A   Clear
2:55 AM 64.4 °F - 57.2 °F 77% 30.07 in 10.0 mi SE 10.4 mph 16.1 mph N/A   Unknown
3:14 AM 62.6 °F - 57.2 °F 82% 30.06 in 10.0 mi ESE 8.1 mph - N/A   Unknown
3:35 AM 62.6 °F - 57.2 °F 82% 30.06 in 10.0 mi SE 9.2 mph - N/A   Unknown
3:55 AM 62.6 °F - 57.2 °F 82% 30.06 in 10.0 mi SE 6.9 mph - N/A   Unknown
4:14 AM 62.6 °F - 57.2 °F 82% 30.06 in 10.0 mi SE 6.9 mph - N/A   Unknown
4:34 AM 62.6 °F - 55.4 °F 77% 30.07 in 10.0 mi SE 9.2 mph - N/A   Unknown
4:55 AM 62.6 °F - 55.4 °F 77% 30.06 in 10.0 mi SE 10.4 mph - N/A   Unknown
5:14 AM 62.6 °F - 55.4 °F 77% 30.07 in 10.0 mi SE 8.1 mph - N/A   Unknown
5:34 AM 62.6 °F - 55.4 °F 77% 30.07 in 10.0 mi SE 8.1 mph 16.1 mph N/A   Unknown
5:55 AM 62.6 °F - 55.4 °F 77% 30.07 in 10.0 mi SE 10.4 mph - N/A   Unknown
6:14 AM 62.6 °F - 55.4 °F 77% 30.07 in 10.0 mi SE 9.2 mph - N/A   Unknown
6:34 AM 62.6 °F - 55.4 °F 77% 30.07 in 10.0 mi SE 8.1 mph - N/A   Unknown
6:55 AM 62.6 °F - 55.4 °F 77% 30.08 in 10.0 mi SE 8.1 mph - N/A   Unknown
7:14 AM 62.6 °F - 55.4 °F 77% 30.08 in 10.0 mi SE 9.2 mph - N/A   Unknown
7:34 AM 62.6 °F - 55.4 °F 77% 30.08 in 10.0 mi SE 8.1 mph - N/A   Unknown
7:55 AM 62.6 °F - 57.2 °F 82% 30.09 in 10.0 mi SE 8.1 mph - N/A   Unknown
8:14 AM 62.6 °F - 57.2 °F 82% 30.09 in 10.0 mi SE 6.9 mph - N/A   Unknown
8:34 AM 62.6 °F - 57.2 °F 82% 30.09 in 10.0 mi SE 8.1 mph - N/A   Unknown
8:55 AM 62.6 °F - 57.2 °F 82% 30.09 in 10.0 mi SE 8.1 mph - N/A   Unknown
9:14 AM 62.6 °F - 57.2 °F 82% 30.09 in 10.0 mi SE 8.1 mph - N/A   Unknown
9:35 AM 64.4 °F - 57.2 °F 77% 30.09 in 10.0 mi SE 8.1 mph - N/A   Unknown
9:55 AM 64.4 °F - 57.2 °F 77% 30.08 in 10.0 mi SE 10.4 mph - N/A   Unknown
10:14 AM 64.4 °F - 57.2 °F 77% 30.08 in 10.0 mi SE 9.2 mph - N/A   Unknown
10:35 AM 64.4 °F - 57.2 °F 77% 30.08 in 10.0 mi SSE 6.9 mph - N/A   Unknown
10:54 AM 66.2 °F - 59.0 °F 78% 30.08 in 10.0 mi SSE 8.1 mph - N/A   Unknown
11:14 AM 66.2 °F - 60.8 °F 83% 30.08 in 10.0 mi SSE 10.4 mph - N/A   Scattered Clouds
11:35 AM 68.0 °F - 60.8 °F 78% 30.08 in 10.0 mi SSE 9.2 mph - N/A   Scattered Clouds
11:54 AM 69.8 °F - 60.8 °F 73% 30.08 in 10.0 mi SSE 6.9 mph - N/A   Unknown
12:14 PM 69.8 °F - 62.6 °F 78% 30.08 in 10.0 mi SSE 8.1 mph - N/A   Unknown
12:35 PM 73.4 °F - 62.6 °F 69% 30.07 in 10.0 mi SSE 11.5 mph - N/A   Unknown
12:54 PM 75.2 °F - 64.4 °F 69% 30.06 in 10.0 mi SSE 9.2 mph - N/A   Clear
1:14 PM 77.0 °F - 66.2 °F 69% 30.06 in 10.0 mi SSE 11.5 mph 17.3 mph N/A   Clear
1:35 PM 78.8 °F - 66.2 °F 65% 30.05 in 10.0 mi South 9.2 mph - N/A   Unknown
1:54 PM 75.2 °F - 66.2 °F 73% 30.05 in 10.0 mi SSW 6.9 mph - N/A   Unknown
2:14 PM 75.2 °F - 66.2 °F 73% 30.04 in 10.0 mi South 5.8 mph - N/A   Mostly Cloudy
2:35 PM 78.8 °F - 66.2 °F 65% 30.03 in 10.0 mi South 6.9 mph - N/A   Unknown
2:54 PM 80.6 °F 83.2 °F 68.0 °F 65% 30.03 in 10.0 mi SSE 8.1 mph - N/A   Unknown
3:14 PM 82.4 °F 86.3 °F 69.8 °F 66% 30.02 in 10.0 mi South 10.4 mph - N/A   Unknown
3:35 PM 82.4 °F 86.3 °F 69.8 °F 66% 30.01 in 10.0 mi South 10.4 mph - N/A   Mostly Cloudy
3:54 PM 80.6 °F 83.9 °F 69.8 °F 70% 30.00 in 10.0 mi South 10.4 mph - N/A   Scattered Clouds
4:14 PM 82.4 °F 86.3 °F 69.8 °F 66% 30.00 in 10.0 mi SSE 9.2 mph - N/A   Scattered Clouds
4:34 PM 82.4 °F 86.3 °F 69.8 °F 66% 30.00 in 10.0 mi SE 8.1 mph - N/A   Scattered Clouds
4:55 PM 80.6 °F 83.9 °F 69.8 °F 70% 29.99 in 10.0 mi SE 6.9 mph - N/A   Mostly Cloudy
5:14 PM 80.6 °F 83.9 °F 69.8 °F 70% 29.99 in 10.0 mi South 8.1 mph - N/A   Mostly Cloudy
5:35 PM 78.8 °F - 69.8 °F 74% 30.00 in 10.0 mi South 9.2 mph - N/A   Scattered Clouds
5:55 PM 78.8 °F - 69.8 °F 74% 29.99 in 10.0 mi SSE 10.4 mph - N/A Rain Light Rain
6:14 PM 78.8 °F - 69.8 °F 74% 29.99 in 10.0 mi SE 8.1 mph - N/A   Clear
6:35 PM 78.8 °F - 69.8 °F 74% 29.98 in 10.0 mi SE 5.8 mph - N/A   Clear
6:54 PM 78.8 °F - 69.8 °F 74% 29.97 in 10.0 mi ESE 6.9 mph - N/A   Clear
7:15 PM 78.8 °F - 69.8 °F 74% 29.97 in 10.0 mi SE 9.2 mph - N/A   Clear
7:34 PM 78.8 °F - 69.8 °F 74% 29.97 in 10.0 mi SSE 10.4 mph 16.1 mph N/A   Clear
7:54 PM 77.0 °F - 69.8 °F 78% 29.97 in 10.0 mi SSE 8.1 mph - N/A   Clear
8:15 PM 75.2 °F - 69.8 °F 83% 29.97 in 10.0 mi SE 8.1 mph - N/A   Clear
8:35 PM 75.2 °F - 69.8 °F 83% 29.97 in 10.0 mi SE 6.9 mph - N/A   Clear
8:54 PM 75.2 °F - 69.8 °F 83% 29.98 in 10.0 mi SE 8.1 mph - N/A   Clear
9:15 PM 75.2 °F - 68.0 °F 78% 29.98 in 10.0 mi SE 6.9 mph - N/A   Clear
9:35 PM 73.4 °F - 68.0 °F 83% 29.97 in 10.0 mi SE 9.2 mph - N/A   Clear
9:54 PM 73.4 °F - 68.0 °F 83% 29.98 in 10.0 mi SE 6.9 mph - N/A   Clear
10:15 PM 73.4 °F - 68.0 °F 83% 29.99 in 10.0 mi SE 6.9 mph - N/A   Clear
10:35 PM 73.4 °F - 68.0 °F 83% 29.99 in 10.0 mi SE 6.9 mph - N/A   Clear
10:54 PM 73.4 °F - 68.0 °F 83% 29.99 in 10.0 mi SSE 8.1 mph - N/A   Clear
11:15 PM 73.4 °F - 68.0 °F 83% 29.99 in 10.0 mi SSE 6.9 mph - N/A   Scattered Clouds
11:35 PM 73.4 °F - 68.0 °F 83% 29.99 in 10.0 mi SSE 9.2 mph - N/A   Scattered Clouds
11:54 PM 73.4 °F - 66.2 °F 78% 30.02 in 10.0 mi WSW 15.0 mph 21.9 mph N/A   Scattered Clouds